MST,Max TemperatureF,Mean TemperatureF,Min TemperatureF,Max Dew PointF,MeanDew PointF,Min DewpointF,Max Humidity, Mean Humidity, Min Humidity, Max Sea Level PressureIn, Mean Sea Level PressureIn, Min Sea Level PressureIn, Max VisibilityMiles, Mean VisibilityMiles, Min VisibilityMiles, Max Wind SpeedMPH, Mean Wind SpeedMPH, Max Gust SpeedMPH,PrecipitationIn, CloudCover, Events, WindDirDegrees
2013-11-1,57,42,30,27,25,21,79,54,28,30.23,30.13,30.00,10,9,1,13,8,,0.00,0,,348
2013-11-2,59,42,28,27,25,22,82,53,25,30.32,30.17,30.01,10,10,10,12,5,,0.00,0,,348
2013-11-3,61,49,37,38,29,24,83,53,30,30.05,29.83,29.67,10,10,10,20,7,25,0.01,3,Rain,313
2013-11-4,59,44,28,35,30,24,85,58,29,29.93,29.81,29.71,10,10,8,30,6,43,0.38,3,Rain-Thunderstorm,157
2013-11-5,48,38,28,41,35,17,100,81,50,30.18,29.94,29.72,10,9,2,22,8,30,0.31,5,Rain-Thunderstorm,222
2013-11-6,45,36,26,25,21,16,75,57,36,30.43,30.34,30.20,10,10,10,13,7,,0.00,0,,328
2013-11-7,55,42,28,27,24,21,82,57,28,30.48,30.35,30.24,10,10,10,20,11,21,0.00,0,,351
2013-11-8,57,42,27,29,24,20,82,55,25,30.23,30.11,29.99,10,10,10,13,5,,0.00,0,,345
2013-11-9,63,48,34,29,24,19,65,46,18,30.20,30.11,30.01,10,10,10,16,10,,0.00,0,,12
2013-11-10,63,48,33,29,25,19,75,51,18,30.30,30.21,30.15,10,10,10,16,7,,0.00,0,,1
2013-11-11,64,49,34,27,22,16,70,45,16,30.34,30.24,30.14,10,10,10,18,12,18,0.00,0,,1
2013-11-12,48,39,30,34,30,20,96,73,46,30.63,30.52,30.32,10,10,6,17,8,22,0.00,2,,159
2013-11-13,52,41,30,35,32,28,100,83,49,30.53,30.37,30.08,10,6,0,16,6,,0.00,3,Fog,13
2013-11-14,54,44,30,39,33,26,100,73,37,30.14,30.00,29.90,10,10,10,14,5,,0.00,3,,313
2013-11-15,55,40,26,43,32,22,100,74,34,29.90,29.78,29.64,10,9,2,16,5,25,0.51,4,Rain,248
2013-11-16,52,46,39,41,36,28,100,75,47,29.83,29.69,29.55,10,9,3,26,13,37,0.35,5,Rain,251
2013-11-17,54,45,35,33,30,28,79,63,40,30.12,29.94,29.74,10,10,10,21,12,26,0.00,0,,321
2013-11-18,52,41,30,33,28,25,92,69,35,30.22,30.15,30.09,10,10,10,16,10,23,0.00,0,,359
2013-11-19,55,42,30,35,30,25,82,66,45,30.10,29.96,29.81,10,10,10,15,9,,0.00,0,,350
2013-11-20,46,40,33,39,36,28,100,88,61,29.99,29.93,29.80,10,9,6,12,4,,0.07,6,Rain,219
2013-11-21,46,40,34,42,38,34,100,89,73,30.19,30.03,29.88,10,8,2,10,3,,0.29,6,Rain,208
2013-11-22,34,29,24,33,25,21,100,89,81,30.44,30.31,30.14,10,9,1,24,13,31,0.11,8,Rain-Snow,180
2013-11-23,30,26,21,28,24,19,96,86,75,30.45,30.38,30.32,10,6,0,21,7,29,0.08,8,Fog-Snow,191
2013-11-24,23,20,17,21,16,14,96,86,72,30.40,30.26,30.06,10,4,0,20,12,26,0.00,8,Fog-Snow,173
2013-11-25,37,27,17,25,20,15,96,83,59,30.39,30.17,30.02,10,9,2,15,7,22,0.00,3,Snow,327
2013-11-26,37,24,12,26,19,10,92,79,53,30.51,30.44,30.37,10,10,10,13,6,,0.00,0,,13
2013-11-27,37,28,19,26,21,16,92,78,62,30.46,30.33,30.22,10,10,10,17,11,,0.00,0,,3
2013-11-28,43,30,18,26,19,13,88,70,45,30.35,30.27,30.21,10,10,10,18,10,,0.00,0,,1
2013-11-29,46,34,23,29,23,18,85,70,46,30.41,30.31,30.24,10,10,10,16,10,,0.00,0,,357
2013-11-30,48,37,26,32,24,19,85,68,44,30.36,30.27,30.18,10,10,10,20,12,,0.00,0,,359